User: anonymous   Login
Location: Columbia
(38.9520°N, 92.3340°W)
Time: 12:49:12
(UTC-05:00)
Language:

Cosmos 158 Rocket - Orbit

View from above orbital plane
View from above orbital plane
View from above satellite
View from above satellite

Ground track
Ground track

The orbit data is extracted from the following two-line orbital elements,

1  2802U 67045B   17085.82143182 +.00000090 +00000-0 +33706-4 0  9996
2  2802 074.0121 320.0217 0065989 033.5551 326.9758 14.43627951617098
Epoch (UTC): 26 March 2017 19:42:51
Eccentricity: 0.0065989
inclination: 74.0121°
perigee height: 699 km
apogee height: 793 km
right ascension of ascending node: 320.0217°
argument of perigee: 33.5551°
revolutions per day: 14.43627951
mean anomaly at epoch: 326.9758°
orbit number at epoch: 61709

The dashed part of the orbit path shows where the satellite is in the earth's shadow,  

DLR